Location: Suzhou
(31.3110°N, 120.6180°E)
Time: 17:25:02
(UTC+08:00)

NOAA 15 - Pass Details

Date: 22 May 2024
Orbit: 796 x 810 km, 98.6° (Epoch: 13 June)

Event Time Altitude Azimuth Distance (km) Brightness Sun altitude
Rises 19:56:26 0° 202° (SSW) 3,287 7.7 -13.0°
Reaches altitude 10° 19:59:24 10° 220° (SW) 2,360 7.1 -13.5°
Maximum altitude 20:03:04 19° 265° (W) 1,798 7.1 -14.1°
Drops below altitude 10° 20:06:46 10° 310° (NW) 2,367 8.5 -14.8°
Sets 20:09:46 0° 328° (NNW) 3,301 9.1 -15.3°
